ONEWEB-0321 (49191 NORAD) Tracking and Keplerian Element Data

This shows tracking and keplerian element data for the satellite.

Feedback or suggestion? Click here.




ElementValue
Catalog49191
NameONEWEB-0321
Epoch Orbit363
Epoch Day287.91667824
Epoch Year2021
RAAN317.5496
Inclination87.2184
Eccentricity0.0020076
Argument of Perigee190.7253
Mean Anonmoly299.9677
Mean Motion14.9422293
Decay Rate-0.01272431
L11 49191U 21083F 21287.91667824 -.01272431 00000-0 -12809+0 0 9992
L22 49191 87.2184 317.5496 0020076 190.7253 299.9677 14.94222930 3630

Live tracking and technical data element details for ONEWEB-0321 (NORAD 49191). ONEWEB-0321 can be tracked NOW for your location showing map with azimuth and elevation plus other details from your city location.

Track the satellite on the map from your city or location and see movement details for azimuth, elevation, latitude, longitude, range, height, and movement on the map or in text.







IsCatalogInMostPopularTable: catalog: 49191, numindb: 7
Update: records affected: 1



GetName: 49191 ONEWEB-0321

Hit Count: updated at: Tue, 19 Oct 2021 07:53:59 GMT